Location: Newark
(56.9500°N, 24.6667°E)
Time: 03:52:49
(UTC+00:00)

ISS - Visible Passes

Search period start: 19 March 2019 00:00
Search period end: 29 March 2019 00:00
Orbit: 406 x 411 km, 51.6° (Epoch: 19 March)

Date Brightness Start Highest point End Pass type
(mag) Time Alt. Az. Time Alt. Az. Time Alt. Az.
23 Mar -1.6 17:51:10 10° SSE 17:52:14 11° SE 17:52:21 11° SE visible
24 Mar -2.2 18:34:30 10° SSW 18:36:35 21° S 18:36:35 21° S visible
25 Mar -2.0 17:43:58 10° SSW 17:46:15 17° SSE 17:47:52 13° ESE visible
25 Mar -1.8 19:19:14 10° WSW 19:20:37 20° SW 19:20:37 20° SW visible
26 Mar -2.7 18:28:21 10° SW 18:31:14 28° SSE 18:31:46 27° SSE visible
26 Mar -0.9 20:04:23 10° WSW 20:04:31 11° WSW 20:04:31 11° WSW visible
27 Mar -2.4 17:37:33 10° SW 17:40:17 24° SSE 17:42:50 11° ESE visible
27 Mar -2.5 19:13:21 10° WSW 19:15:34 28° SSW 19:15:34 28° SSW visible
28 Mar -2.8 18:22:21 10° WSW 18:25:20 32° S 18:26:33 24° SE visible
28 Mar -1.2 19:58:38 10° WSW 19:59:17 14° WSW 19:59:17 14° WSW visible
